This is the latest recevied weather packets stored in our database for station/object KO4LFZ. If no packets are shown the sender has not sent any weather packets the latest 10 day(s).
| Time | Temp. | Humidity | Pressure | Rain* | Wind** | Luminosity | Snow |
|---|---|---|---|---|---|---|---|
| 1777483706 | 18.33° C | 76% | 1015.6 hPa | 0 mm | - | 369 W/m² | - |
| 1777483401 | 18.33° C | 78% | 1015.8 hPa | 0 mm | - | 977 W/m² | - |
| 1777483097 | 17.78° C | 81% | 1015.8 hPa | 0 mm | - | 504 W/m² | - |
| 1777482794 | 17.78° C | 78% | 1015.7 hPa | 0 mm | - | 656 W/m² | - |
| 1777482489 | 17.78° C | 79% | 1015.9 hPa | 0 mm | - | 477 W/m² | - |
| 1777482187 | 17.22° C | 79% | 1015.8 hPa | 0 mm | - | 298 W/m² | - |
| 1777481885 | 17.78° C | 80% | 1016 hPa | 0 mm | - | 333 W/m² | - |
| 1777481582 | 17.22° C | 85% | 1016 hPa | 0 mm | - | 792 W/m² | - |
| 1777481279 | 16.67° C | 82% | 1015.9 hPa | 0 mm | - | 300 W/m² | - |
| 1777480975 | 16.67° C | 82% | 1016.3 hPa | 0 mm | - | 339 W/m² | - |
| 1777480672 | 16.67° C | 85% | 1016 hPa | 0 mm | - | 425 W/m² | - |
| 1777480369 | 16.67° C | 89% | 1015.9 hPa | 0 mm | - | 583 W/m² | - |
| 1777480064 | 15.56° C | 90% | 1016 hPa | 0 mm | - | 199 W/m² | - |
| 1777479761 | 15.56° C | 90% | 1016 hPa | 0 mm | - | 199 W/m² | - |
| 1777479459 | 15.56° C | 90% | 1016 hPa | 0 mm | - | 190 W/m² | - |
| 1777479155 | 15.56° C | 91% | 1016 hPa | 0 mm | - | 189 W/m² | - |
| 1777478852 | 15.56° C | 90% | 1016.1 hPa | 0 mm | - | 199 W/m² | - |
| 1777478548 | 15.56° C | 90% | 1015.8 hPa | 0 mm | - | 216 W/m² | - |
| 1777478246 | 15.56° C | 90% | 1015.6 hPa | 0 mm | - | 207 W/m² | - |
| 1777477941 | 15.56° C | 91% | 1015.7 hPa | 0 mm | - | 165 W/m² | - |
| 1777477637 | 16.11° C | 90% | 1015.9 hPa | 0 mm | - | 141 W/m² | - |
| 1777477334 | 16.11° C | 90% | 1015.8 hPa | 0 mm | - | 139 W/m² | - |
| 1777477030 | 16.11° C | 89% | 1015.6 hPa | 0 mm | - | 99 W/m² | - |
| 1777476723 | 16.67° C | 89% | 1015.5 hPa | 0 mm | - | 215 W/m² | - |
| 1777476419 | 16.11° C | 90% | 1015.5 hPa | 0 mm | - | 400 W/m² | - |
* Rain latest hour (hover to see other rain measurements)
** Current wind speed in m/s (hover to see current wind gust speed)